Theta_e
310 307 304 305 310 313 315 317 316 326 332 330 332 342 342 350 354 357 357 358 360 362 361 361 360 359 358 358 359 359 359 359
306 306 308 308 312 313 314 317 318 328 327 337 348 346 349 353 354 354 354 355 361 361 360 361 360 359 358 358 358 359 359 359
304 306 307 310 312 314 313 314 317 330 326 335 346 351 352 352 352 351 352 355 358 361 360 361 360 359 358 358 357 358 358 358
302 305 309 310 314 314 314 315 322 326 329 337 348 349 351 352 351 351 352 355 358 360 360 360 360 359 358 358 358 358 358 358
304 306 308 310 314 313 313 315 324 332 327 338 342 348 352 352 353 353 354 355 357 356 359 360 359 358 357 357 357 357 357 358
303 304 308 310 310 312 315 318 337 338 328 332 343 350 351 353 352 352 353 355 357 358 356 356 356 358 357 357 357 357 357 357
302 303 309 309 310 315 323 329 334 336 336 341 348 349 349 347 349 350 352 355 356 356 358 357 356 356 357 356 357 357 357 357
305 306 306 308 311 314 318 330 332 336 343 346 347 346 343 343 342 345 348 351 354 355 356 356 355 357 357 354 354 354 353 356
304 306 307 308 310 313 317 323 331 334 340 343 343 343 342 342 344 345 348 349 352 356 357 355 355 357 356 356 356 356 356 357
305 306 307 307 311 311 313 315 327 341 344 343 341 341 340 340 344 345 346 349 351 353 354 355 356 356 356 355 356 355 355 357
307 307 306 308 308 312 313 320 339 341 341 340 340 341 343 345 345 347 347 349 351 352 352 355 357 355 355 355 355 355 355 356
306 307 306 306 307 312 314 329 336 337 338 340 340 341 342 344 345 347 349 349 351 351 353 353 354 356 354 355 354 354 353 354
304 305 306 307 305 309 316 329 333 336 338 339 342 343 343 345 347 349 348 351 350 350 351 351 351 351 351 352 351 352 352 355
304 305 305 306 303 309 316 317 325 329 330 332 336 341 343 344 347 350 351 349 350 347 347 348 347 347 347 348 349 349 350 351
299 305 305 305 302 308 314 316 315 317 318 321 324 331 338 342 344 346 348 349 348 348 346 345 346 346 348 354 352 352 353 351
297 301 304 302 303 308 313 314 314 316 318 318 319 321 324 328 339 343 346 346 347 347 347 346 345 348 349 353 356 356 353 352
298 302 302 302 304 309 311 312 313 315 316 318 319 322 327 336 339 342 344 345 345 346 348 346 345 344 346 345 347 347 354 358
298 302 302 303 303 308 311 313 315 315 315 317 319 321 325 337 340 342 343 344 344 344 344 344 343 344 344 346 347 350 348 345
295 300 302 302 299 303 309 312 314 315 317 318 319 320 322 331 338 340 342 342 342 343 342 342 342 341 343 349 345 338 335 332
294 296 292 302 291 299 305 308 311 314 315 317 319 320 322 327 333 337 338 339 340 341 344 346 348 347 347 342 333 330 328 328
Wind_Speed
3 3 9 4 5 4 6 7 3 4 4 3 5 6 10 13 20 19 18 16 16 17 18 18 18 18 16 15 15 15 14 13
5 11 7 3 7 3 8 3 5 5 7 6 8 2 8 19 22 20 17 16 16 15 15 16 18 19 18 16 15 14 13 12
6 13 3 6 7 7 7 3 3 6 8 4 7 7 16 19 20 22 17 14 15 13 15 14 16 17 18 17 15 14 13 12
14 12 9 5 8 6 3 3 4 6 6 5 3 9 12 16 19 19 18 15 14 13 14 14 14 15 16 17 16 15 13 11
8 15 10 6 2 6 0 3 3 3 5 8 9 10 12 14 16 18 17 15 13 13 13 14 14 14 14 15 15 15 15 13
10 14 20 6 3 4 2 1 2 3 5 6 10 14 14 15 16 17 16 15 13 12 12 12 12 12 13 13 13 12 12 12
17 11 9 5 7 3 3 3 2 2 1 8 18 17 15 16 15 14 12 13 13 12 12 12 12 12 12 12 10 9 9 9
6 5 6 5 6 7 4 7 2 8 12 15 17 17 18 18 16 16 16 14 12 12 11 11 8 10 9 9 9 9 9 9
6 5 3 4 6 2 6 7 7 11 19 17 16 15 16 17 16 16 15 12 13 12 12 12 10 8 6 6 6 6 9 8
4 3 4 2 1 4 4 1 3 12 15 17 19 17 17 16 17 17 17 15 13 12 11 11 8 9 9 7 7 6 7 8
7 1 2 1 3 3 6 6 12 15 10 14 14 15 12 13 13 15 16 16 16 14 11 10 9 6 5 6 5 4 4 6
5 7 0 2 3 4 6 11 14 15 13 12 13 13 11 12 14 14 14 15 13 12 11 10 8 7 4 3 4 4 4 5
9 5 5 2 3 6 8 13 15 15 13 12 12 12 14 13 13 14 13 11 12 11 9 9 8 4 3 2 2 3 4 7
16 12 4 9 22 9 9 11 14 14 11 11 12 14 12 10 10 11 9 12 10 9 10 7 5 4 4 4 4 5 5 5
13 16 8 11 8 10 8 10 10 12 14 13 11 11 11 12 12 11 9 7 8 8 7 7 5 4 5 5 4 4 4 5
18 11 17 13 6 9 11 9 10 8 7 8 9 9 5 10 11 11 9 6 6 7 7 7 5 3 3 3 1 1 3 4
13 6 12 13 11 6 11 8 10 8 6 7 7 4 1 3 5 6 6 6 5 6 6 4 3 2 2 2 2 4 5 6
11 10 11 10 14 5 9 12 12 12 10 10 8 7 3 3 4 5 4 5 5 4 5 4 3 3 2 2 2 5 4 6
12 9 3 10 9 8 7 7 8 9 7 7 10 8 6 6 5 5 6 7 6 6 5 5 6 4 3 5 5 5 6 6
19 12 11 8 12 9 11 12 11 12 9 10 9 8 7 7 5 5 5 6 6 6 6 5 7 7 9 8 7 6 6 7
Wind_Direction
233 204 215 219 161 227 291 308 233 127 51 79 49 82 130 128 140 137 140 146 145 142 141 143 137 130 127 125 125 123 125 126
232 208 222 275 152 282 318 87 175 141 112 82 10 268 146 143 144 139 143 147 138 137 139 143 137 134 134 133 130 130 129 130
223 230 244 251 262 292 310 296 284 181 120 73 29 74 136 145 147 138 142 143 142 134 136 143 138 137 136 136 137 139 141 143
214 221 232 238 259 269 285 333 323 173 108 94 102 133 144 146 148 142 139 142 143 137 138 144 140 142 141 142 146 148 149 151
211 217 236 218 228 253 251 308 56 346 123 121 135 133 143 143 140 138 136 142 148 153 149 144 145 149 147 149 155 158 158 163
207 204 222 176 241 280 316 116 79 359 180 164 155 137 136 141 142 142 145 150 154 157 160 161 158 155 153 161 164 161 162 168
203 188 196 166 197 140 47 174 69 341 128 128 139 135 137 144 144 141 148 156 159 166 173 173 165 164 161 168 163 163 170 179
190 189 162 164 202 159 186 151 138 116 116 132 146 150 155 162 157 154 161 167 170 178 181 172 168 168 171 173 185 187 190 188
211 181 180 149 163 185 172 203 210 188 149 149 152 160 169 167 164 163 169 179 185 183 183 178 172 174 183 188 187 195 198 198
169 159 139 146 72 154 212 42 225 164 151 153 162 172 174 173 168 170 178 186 188 190 189 191 181 186 184 192 190 192 207 209
203 90 101 237 74 178 130 115 132 141 160 168 168 172 178 177 171 175 186 191 193 188 191 193 195 194 207 189 195 201 208 208
187 202 64 145 72 265 128 141 141 155 167 175 175 175 168 179 177 188 194 199 191 193 192 189 188 197 198 196 186 209 214 206
192 175 194 132 209 218 132 154 152 166 170 176 182 179 190 185 189 192 202 196 195 193 196 194 190 200 178 200 200 225 226 216
187 183 185 197 202 200 152 149 164 168 177 188 200 202 201 203 208 208 200 198 195 190 191 191 173 182 203 189 201 224 225 237
182 202 165 203 188 205 166 158 162 166 169 175 185 205 215 218 216 207 204 198 189 182 183 166 155 179 193 187 211 218 210 230
197 183 203 187 188 185 173 173 197 187 191 188 196 206 191 212 217 223 212 179 162 164 142 134 128 120 119 142 175 241 242 247
198 184 183 193 186 206 169 177 181 195 191 219 235 253 264 157 193 209 197 193 180 169 165 165 157 191 186 180 29 333 332 331
179 160 189 175 185 205 194 191 193 190 194 212 224 228 210 184 177 175 144 144 137 147 155 176 177 183 197 172 48 57 43 32
165 161 100 153 189 200 222 244 213 204 223 227 224 211 223 199 198 162 154 143 147 156 166 185 195 170 175 127 87 77 64 60
193 178 190 217 206 213 193 204 226 220 222 229 243 244 241 234 193 162 148 146 140 133 135 133 143 118 108 105 108 92 92 83